This is the latest recevied weather packets stored in our database for station/object KB3VSP. If no packets are shown the sender has not sent any weather packets the latest 10 day(s).
| Time | Temp. | Humidity | Pressure | Rain* | Wind** | Luminosity | Snow |
|---|---|---|---|---|---|---|---|
| 1777838536 | 15° C | 39% | 1014.5 hPa | 0 mm | - | 92 W/m² | - |
| 1777838233 | 15° C | 39% | 1014.6 hPa | 0 mm | - | 514 W/m² | - |
| 1777837930 | 14.44° C | 41% | 1014.7 hPa | 0 mm | - | 129 W/m² | - |
| 1777837627 | 14.44° C | 41% | 1014.8 hPa | 0 mm | - | 112 W/m² | - |
| 1777837324 | 13.89° C | 40% | 1014.7 hPa | 0 mm | - | 88 W/m² | - |
| 1777837019 | 14.44° C | 39% | 1015.1 hPa | 0 mm | - | 94 W/m² | - |
| 1777836715 | 14.44° C | 41% | 1015 hPa | 0 mm | - | 406 W/m² | - |
| 1777836412 | 14.44° C | 42% | 1014.9 hPa | 0 mm | - | 537 W/m² | - |
| 1777836107 | 13.33° C | 42% | 1015 hPa | 0 mm | - | 370 W/m² | - |
| 1777835804 | 13.33° C | 44% | 1015 hPa | 0 mm | - | 100 W/m² | - |
| 1777835501 | 13.33° C | 43% | 1015.4 hPa | 0 mm | - | 279 W/m² | - |
| 1777835198 | 14.44° C | 43% | 1015.4 hPa | 0 mm | - | 144 W/m² | - |
| 1777834895 | 13.89° C | 42% | 1015.5 hPa | 0 mm | - | 150 W/m² | - |
| 1777834592 | 13.89° C | 44% | 1015.4 hPa | 0 mm | - | 225 W/m² | - |
| 1777834286 | 13.89° C | 42% | 1015.6 hPa | 0 mm | - | 158 W/m² | - |
| 1777833982 | 12.78° C | 43% | 1015.7 hPa | 0 mm | - | 132 W/m² | - |
| 1777833679 | 13.33° C | 43% | 1015.6 hPa | 0 mm | - | 82 W/m² | - |
| 1777833375 | 13.89° C | 43% | 1015.8 hPa | 0 mm | - | 150 W/m² | - |
| 1777833073 | 14.44° C | 42% | 1015.7 hPa | 0 mm | - | 672 W/m² | - |
| 1777832771 | 13.89° C | 43% | 1015.8 hPa | 0 mm | - | 707 W/m² | - |
| 1777832469 | 13.89° C | 41% | 1015.8 hPa | 0 mm | - | 698 W/m² | - |
| 1777832165 | 13.89° C | 43% | 1015.9 hPa | 0 mm | - | 758 W/m² | - |
| 1777831862 | 13.33° C | 45% | 1015.9 hPa | 0 mm | - | 802 W/m² | - |
| 1777831559 | 12.78° C | 45% | 1016 hPa | 0 mm | - | 766 W/m² | - |
| 1777831257 | 12.78° C | 45% | 1016.2 hPa | 0 mm | - | 163 W/m² | - |
* Rain latest hour (hover to see other rain measurements)
** Current wind speed in m/s (hover to see current wind gust speed)